Location: Ostrava
(49.8330°N, 18.2830°E)
Time: 10:55:28
(UTC+02:00)

ISS - Pass Details

Date: 22 May 2021
Orbit: 417 x 422 km, 51.6° (Epoch: 13 June)

Event Time Altitude Azimuth Distance (km) Brightness Sun altitude
Rises 22:58:03 0° 285° (WNW) 2,367 0.7 -15.8°
Reaches altitude 10° 23:00:09 10° 286° (WNW) 1,503 -0.4 -16.0°
Maximum altitude 23:03:32 79° 14° (NNE) 433 -3.7 -16.2°
Enters shadow 23:05:24 25° 98° (E) 904 -2.4 -16.3°
